{"data":{"norad_id":66415,"intl_designator":"2025-258D","name":"HULIANWANG DIGUI-99","alt_names":[],"object_type":"PAYLOAD","status":"ACTIVE","operator":null,"country":"PRC","launch_date":"2025-11-10","launch_site_code":"WSC","launch_vehicle":null,"mission":null,"orbit_class":"UNKNOWN","rcs_meters":null,"size_class":null,"mass_kg":null,"dimensions":null,"purposes":[],"wikipedia_slug":null,"has_3d_model":false,"image_url":null,"decayed_at":null,"tle_current":{"epoch":"2026-09-20T03:34:10.124256Z","epoch_age_seconds":158345,"freshness":"FRESH","line1":"1 66415U 25258D   26263.14872829 -.00000087  00000+0  80087-4 0  9996","line2":"2 66415  50.0058 314.9878 0000104 129.0259 231.0622 13.29330413 42354","mean_motion":13.29330413,"eccentricity":1.04e-5,"inclination_deg":50.0058,"raan_deg":314.9878,"arg_perigee_deg":129.0259,"mean_anomaly_deg":231.0622,"bstar":8.0087e-5,"rev_number":4235,"period_min":108.32521289799,"perigee_km":1149.211627286,"apogee_km":1149.3681977658,"semimajor_km":7527.4269125259,"source":"CELESTRAK","updated_at":"2026-09-21T09:00:15.963383Z"}}}